Year,Month,Day,Hour,Minute,Value (Times are PST for temperature in C)
2015,07,21,00,00,17.50
2015,07,21,00,01,17.40
2015,07,21,00,02,17.40
2015,07,21,00,03,17.40
2015,07,21,00,04,17.40
2015,07,21,00,05,17.40
2015,07,21,00,06,17.40
2015,07,21,00,07,17.40
2015,07,21,00,08,17.30
2015,07,21,00,09,17.30
2015,07,21,00,10,17.30
2015,07,21,00,11,17.30
2015,07,21,00,12,17.30
2015,07,21,00,13,17.30
2015,07,21,00,14,17.30
2015,07,21,00,15,17.20
2015,07,21,00,16,17.20
2015,07,21,00,17,17.20
2015,07,21,00,18,17.20
2015,07,21,00,19,17.20
2015,07,21,00,20,17.20
2015,07,21,00,21,17.20
2015,07,21,00,22,17.10
2015,07,21,00,23,17.10
2015,07,21,00,24,17.10
2015,07,21,00,25,17.10
2015,07,21,00,26,17.10
2015,07,21,00,27,17.10
2015,07,21,00,28,17.10
2015,07,21,00,29,17.10
2015,07,21,00,30,17.10
2015,07,21,00,31,17.10
2015,07,21,00,32,17.10
2015,07,21,00,33,17.10
2015,07,21,00,34,17.00
2015,07,21,00,35,17.00
2015,07,21,00,36,17.00
2015,07,21,00,37,17.00
2015,07,21,00,38,16.90
2015,07,21,00,39,16.90
2015,07,21,00,40,16.90
2015,07,21,00,41,16.90
2015,07,21,00,42,16.90
2015,07,21,00,43,16.90
2015,07,21,00,44,16.90
2015,07,21,00,45,16.80
2015,07,21,00,46,16.80
2015,07,21,00,47,16.80
2015,07,21,00,48,16.80
2015,07,21,00,49,16.80
2015,07,21,00,50,16.80
2015,07,21,00,51,16.80
2015,07,21,00,52,16.80
2015,07,21,00,53,16.80
2015,07,21,00,54,16.70
2015,07,21,00,55,16.70
2015,07,21,00,56,16.70
2015,07,21,00,57,16.70
2015,07,21,00,58,16.70
2015,07,21,00,59,16.70
2015,07,21,01,00,16.70
2015,07,21,01,01,16.70
2015,07,21,01,02,16.70
2015,07,21,01,03,16.70
2015,07,21,01,04,16.60
2015,07,21,01,05,16.60
2015,07,21,01,06,16.60
2015,07,21,01,07,16.60
2015,07,21,01,08,16.60
2015,07,21,01,09,16.60
2015,07,21,01,10,16.60
2015,07,21,01,11,16.60
2015,07,21,01,12,16.60
2015,07,21,01,13,16.60
2015,07,21,01,14,16.50
2015,07,21,01,15,16.50
2015,07,21,01,16,16.50
2015,07,21,01,17,16.50
2015,07,21,01,18,16.50
2015,07,21,01,19,16.50
2015,07,21,01,20,16.50
2015,07,21,01,21,16.40
2015,07,21,01,22,16.40
2015,07,21,01,23,16.40
2015,07,21,01,24,16.40
2015,07,21,01,25,16.40
2015,07,21,01,26,16.40
2015,07,21,01,27,16.40
2015,07,21,01,28,16.40
2015,07,21,01,29,16.30
2015,07,21,01,30,16.30
2015,07,21,01,31,16.30
2015,07,21,01,32,16.30
2015,07,21,01,33,16.30
2015,07,21,01,34,16.30
2015,07,21,01,35,16.30
2015,07,21,01,36,16.30
2015,07,21,01,37,16.30
2015,07,21,01,38,16.30
2015,07,21,01,39,16.30
2015,07,21,01,40,16.30
2015,07,21,01,41,16.20
2015,07,21,01,42,16.20
2015,07,21,01,43,16.20
2015,07,21,01,44,16.20
2015,07,21,01,45,16.20
2015,07,21,01,46,16.20
2015,07,21,01,47,16.20
2015,07,21,01,48,16.10
2015,07,21,01,49,16.10
2015,07,21,01,50,16.10
2015,07,21,01,51,16.10
2015,07,21,01,52,16.10
2015,07,21,01,53,16.10
2015,07,21,01,54,16.10
2015,07,21,01,55,16.10
2015,07,21,01,56,16.10
2015,07,21,01,57,16.00
2015,07,21,01,58,16.00
2015,07,21,01,59,16.00
2015,07,21,02,00,16.00
2015,07,21,02,01,16.00
2015,07,21,02,02,16.00
2015,07,21,02,03,16.00
2015,07,21,02,04,15.90
2015,07,21,02,05,15.90
2015,07,21,02,06,15.90
2015,07,21,02,07,15.90
2015,07,21,02,08,15.90
2015,07,21,02,09,15.90
2015,07,21,02,10,15.90
2015,07,21,02,11,15.90
2015,07,21,02,12,15.90
2015,07,21,02,13,15.90
2015,07,21,02,14,15.90
2015,07,21,02,15,15.90
2015,07,21,02,16,15.90
2015,07,21,02,17,15.90
2015,07,21,02,18,15.90
2015,07,21,02,19,15.90
2015,07,21,02,20,15.90
2015,07,21,02,21,15.90
2015,07,21,02,22,15.90
2015,07,21,02,23,15.90
2015,07,21,02,24,15.90
2015,07,21,02,25,15.90
2015,07,21,02,26,15.90
2015,07,21,02,27,15.90
2015,07,21,02,28,15.90
2015,07,21,02,29,15.80
2015,07,21,02,30,15.80
2015,07,21,02,31,15.80
2015,07,21,02,32,15.80
2015,07,21,02,33,15.80
2015,07,21,02,34,15.80
2015,07,21,02,35,15.80
2015,07,21,02,36,15.80
2015,07,21,02,37,15.80
2015,07,21,02,38,15.80
2015,07,21,02,39,15.80
2015,07,21,02,40,15.80
2015,07,21,02,41,15.80
2015,07,21,02,42,15.80
2015,07,21,02,43,15.80
2015,07,21,02,44,15.80
2015,07,21,02,45,15.80
2015,07,21,02,46,15.80
2015,07,21,02,47,15.80
2015,07,21,02,48,15.80
2015,07,21,02,49,15.80
2015,07,21,02,50,15.80
2015,07,21,02,51,15.80
2015,07,21,02,52,15.80
2015,07,21,02,53,15.80
2015,07,21,02,54,15.80
2015,07,21,02,55,15.80
2015,07,21,02,56,15.80
2015,07,21,02,57,15.80
2015,07,21,02,58,15.80
2015,07,21,02,59,15.80
2015,07,21,03,00,15.80
2015,07,21,03,01,15.80
2015,07,21,03,02,15.70
2015,07,21,03,03,15.70
2015,07,21,03,04,15.70
2015,07,21,03,05,15.70
2015,07,21,03,06,15.80
2015,07,21,03,07,15.80
2015,07,21,03,08,15.80
2015,07,21,03,09,15.80
2015,07,21,03,10,15.80
2015,07,21,03,11,15.80
2015,07,21,03,12,15.80
2015,07,21,03,13,15.80
2015,07,21,03,14,15.70
2015,07,21,03,15,15.70
2015,07,21,03,16,15.70
2015,07,21,03,17,15.70
2015,07,21,03,18,15.70
2015,07,21,03,19,15.70
2015,07,21,03,20,15.70
2015,07,21,03,21,15.70
2015,07,21,03,22,15.70
2015,07,21,03,23,15.70
2015,07,21,03,24,15.70
2015,07,21,03,25,15.70
2015,07,21,03,26,15.70
2015,07,21,03,27,15.70
2015,07,21,03,28,15.70
2015,07,21,03,29,15.60
2015,07,21,03,30,15.60
2015,07,21,03,31,15.60
2015,07,21,03,32,15.60
2015,07,21,03,33,15.60
2015,07,21,03,34,15.60
2015,07,21,03,35,15.60
2015,07,21,03,36,15.60
2015,07,21,03,37,15.60
2015,07,21,03,38,15.60
2015,07,21,03,39,15.60
2015,07,21,03,40,15.60
2015,07,21,03,41,15.50
2015,07,21,03,42,15.50
2015,07,21,03,43,15.50
2015,07,21,03,44,15.50
2015,07,21,03,45,15.50
2015,07,21,03,46,15.50
2015,07,21,03,47,15.50
2015,07,21,03,48,15.50
2015,07,21,03,49,15.50
2015,07,21,03,50,15.40
2015,07,21,03,51,15.40
2015,07,21,03,52,15.40
2015,07,21,03,53,15.40
2015,07,21,03,54,15.40
2015,07,21,03,55,15.40
2015,07,21,03,56,15.40
2015,07,21,03,57,15.40
2015,07,21,03,58,15.40
2015,07,21,03,59,15.40
2015,07,21,04,00,15.30
2015,07,21,04,01,15.30
2015,07,21,04,02,15.30
2015,07,21,04,03,15.30
2015,07,21,04,04,15.30
2015,07,21,04,05,15.30
2015,07,21,04,06,15.30
2015,07,21,04,07,15.30
2015,07,21,04,08,15.30
2015,07,21,04,09,15.30
2015,07,21,04,10,15.30
2015,07,21,04,11,15.30
2015,07,21,04,12,15.30
2015,07,21,04,13,15.30
2015,07,21,04,14,15.30
2015,07,21,04,15,15.30
2015,07,21,04,16,15.30
2015,07,21,04,17,15.30
2015,07,21,04,18,15.30
2015,07,21,04,19,15.30
2015,07,21,04,20,15.30
2015,07,21,04,21,15.30
2015,07,21,04,22,15.30
2015,07,21,04,23,15.30
2015,07,21,04,24,15.30
2015,07,21,04,25,15.30
2015,07,21,04,26,15.30
2015,07,21,04,27,15.30
2015,07,21,04,28,15.30
2015,07,21,04,29,15.30
2015,07,21,04,30,15.20
2015,07,21,04,31,15.20
2015,07,21,04,32,15.20
2015,07,21,04,33,15.20
2015,07,21,04,34,15.20
2015,07,21,04,35,15.20
2015,07,21,04,36,15.20
2015,07,21,04,37,15.20
2015,07,21,04,38,15.20
2015,07,21,04,39,15.20
2015,07,21,04,40,15.20
2015,07,21,04,41,15.20
2015,07,21,04,42,15.20
2015,07,21,04,43,15.20
2015,07,21,04,44,15.20
2015,07,21,04,45,15.20
2015,07,21,04,46,15.20
2015,07,21,04,47,15.20
2015,07,21,04,48,15.20
2015,07,21,04,49,15.20
2015,07,21,04,50,15.20
2015,07,21,04,51,15.20
2015,07,21,04,52,15.20
2015,07,21,04,53,15.20
2015,07,21,04,54,15.20
2015,07,21,04,55,15.20
2015,07,21,04,56,15.20
2015,07,21,04,57,15.20
2015,07,21,04,58,15.20
2015,07,21,04,59,15.20
2015,07,21,05,00,15.20
2015,07,21,05,01,15.20
2015,07,21,05,02,15.10
2015,07,21,05,03,15.10
2015,07,21,05,04,15.10
2015,07,21,05,05,15.10
2015,07,21,05,06,15.10
2015,07,21,05,07,15.10
2015,07,21,05,08,15.10
2015,07,21,05,09,15.10
2015,07,21,05,10,15.10
2015,07,21,05,11,15.10
2015,07,21,05,12,15.10
2015,07,21,05,13,15.10
2015,07,21,05,14,15.10
2015,07,21,05,15,15.10
2015,07,21,05,16,15.00
2015,07,21,05,17,15.10
2015,07,21,05,18,15.00
2015,07,21,05,19,15.00
2015,07,21,05,20,15.00
2015,07,21,05,21,15.00
2015,07,21,05,22,15.00
2015,07,21,05,23,15.00
2015,07,21,05,24,15.00
2015,07,21,05,25,15.00
2015,07,21,05,26,15.00
2015,07,21,05,27,15.00
2015,07,21,05,28,15.00
2015,07,21,05,29,15.00
2015,07,21,05,30,15.00
2015,07,21,05,31,15.00
2015,07,21,05,32,15.00
2015,07,21,05,33,15.00
2015,07,21,05,34,15.00
2015,07,21,05,35,15.00
2015,07,21,05,36,15.00
2015,07,21,05,37,15.00
2015,07,21,05,38,15.00
2015,07,21,05,39,15.00
2015,07,21,05,40,15.00
2015,07,21,05,41,15.00
2015,07,21,05,42,15.00
2015,07,21,05,43,15.00
2015,07,21,05,44,15.00
2015,07,21,05,45,15.00
2015,07,21,05,46,15.00
2015,07,21,05,47,15.00
2015,07,21,05,48,15.10
2015,07,21,05,49,15.10
2015,07,21,05,50,15.10
2015,07,21,05,51,15.10
2015,07,21,05,52,15.10
2015,07,21,05,53,15.10
2015,07,21,05,54,15.20
2015,07,21,05,55,15.20
2015,07,21,05,56,15.20
2015,07,21,05,57,15.20
2015,07,21,05,58,15.20
2015,07,21,05,59,15.20
2015,07,21,06,00,15.20
2015,07,21,06,01,15.20
2015,07,21,06,02,15.20
2015,07,21,06,03,15.20
2015,07,21,06,04,15.30
2015,07,21,06,05,15.30
2015,07,21,06,06,15.30
2015,07,21,06,07,15.30
2015,07,21,06,08,15.30
2015,07,21,06,09,15.30
2015,07,21,06,10,15.30
2015,07,21,06,11,15.30
2015,07,21,06,12,15.30
2015,07,21,06,13,15.40
2015,07,21,06,14,15.40
2015,07,21,06,15,15.40
2015,07,21,06,16,15.40
2015,07,21,06,17,15.40
2015,07,21,06,18,15.40
2015,07,21,06,19,15.40
2015,07,21,06,20,15.40
2015,07,21,06,21,15.40
2015,07,21,06,22,15.40
2015,07,21,06,23,15.40
2015,07,21,06,24,15.40
2015,07,21,06,25,15.40
2015,07,21,06,26,15.40
2015,07,21,06,27,15.40
2015,07,21,06,28,15.40
2015,07,21,06,29,15.40
2015,07,21,06,30,15.50
2015,07,21,06,31,15.50
2015,07,21,06,32,15.50
2015,07,21,06,33,15.50
2015,07,21,06,34,15.50
2015,07,21,06,35,15.50
2015,07,21,06,36,15.50
2015,07,21,06,37,15.50
2015,07,21,06,38,15.50
2015,07,21,06,39,15.50
2015,07,21,06,40,15.50
2015,07,21,06,41,15.50
2015,07,21,06,42,15.50
2015,07,21,06,43,15.50
2015,07,21,06,44,15.50
2015,07,21,06,45,15.50
2015,07,21,06,46,15.50
2015,07,21,06,47,15.60
2015,07,21,06,48,15.60
2015,07,21,06,49,15.60
2015,07,21,06,50,15.60
2015,07,21,06,51,15.60
2015,07,21,06,52,15.60
2015,07,21,06,53,15.60
2015,07,21,06,54,15.60
2015,07,21,06,55,15.60
2015,07,21,06,56,15.60
2015,07,21,06,57,15.60
2015,07,21,06,58,15.60
2015,07,21,06,59,15.60
2015,07,21,07,00,15.60
2015,07,21,07,01,15.60
2015,07,21,07,02,15.60
2015,07,21,07,03,15.60
2015,07,21,07,04,15.60
2015,07,21,07,05,15.60
2015,07,21,07,06,15.60
2015,07,21,07,07,15.60
2015,07,21,07,08,15.60
2015,07,21,07,09,15.60
2015,07,21,07,10,15.60
2015,07,21,07,11,15.60
2015,07,21,07,12,15.70
2015,07,21,07,13,15.70
2015,07,21,07,14,15.70
2015,07,21,07,15,15.70
2015,07,21,07,16,15.70
2015,07,21,07,17,15.70
2015,07,21,07,18,15.70
2015,07,21,07,19,15.70
2015,07,21,07,20,15.70
2015,07,21,07,21,15.70
2015,07,21,07,22,15.70
2015,07,21,07,23,15.80
2015,07,21,07,24,15.80
2015,07,21,07,25,15.80
2015,07,21,07,26,15.80
2015,07,21,07,27,15.80
2015,07,21,07,28,15.80
2015,07,21,07,29,15.80
2015,07,21,07,30,15.80
2015,07,21,07,31,15.80
2015,07,21,07,32,15.80
2015,07,21,07,33,15.80
2015,07,21,07,34,15.80
2015,07,21,07,35,15.80
2015,07,21,07,36,15.80
2015,07,21,07,37,15.90
2015,07,21,07,38,15.90
2015,07,21,07,39,15.90
2015,07,21,07,40,15.90
2015,07,21,07,41,15.90
2015,07,21,07,42,15.90
2015,07,21,07,43,15.90
2015,07,21,07,44,15.90
2015,07,21,07,45,15.90
2015,07,21,07,46,15.90
2015,07,21,07,47,15.90
2015,07,21,07,48,15.90
2015,07,21,07,49,15.90
2015,07,21,07,50,15.90
2015,07,21,07,51,15.90
2015,07,21,07,52,15.90
2015,07,21,07,53,15.90
2015,07,21,07,54,15.90
2015,07,21,07,55,15.90
2015,07,21,07,56,15.90
2015,07,21,07,57,16.00
2015,07,21,07,58,16.00
2015,07,21,07,59,16.00
2015,07,21,08,00,16.00
2015,07,21,08,01,16.00
2015,07,21,08,02,16.00
2015,07,21,08,03,16.00
2015,07,21,08,04,16.00
2015,07,21,08,05,16.00
2015,07,21,08,06,16.00
2015,07,21,08,07,16.10
2015,07,21,08,08,16.10
2015,07,21,08,09,16.10
2015,07,21,08,10,16.10
2015,07,21,08,11,16.10
2015,07,21,08,12,16.10
2015,07,21,08,13,16.10
2015,07,21,08,14,16.10
2015,07,21,08,15,16.10
2015,07,21,08,16,16.10
2015,07,21,08,17,16.20
2015,07,21,08,18,16.20
2015,07,21,08,19,16.20
2015,07,21,08,20,16.20
2015,07,21,08,21,16.20
2015,07,21,08,22,16.20
2015,07,21,08,23,16.20
2015,07,21,08,24,16.20
2015,07,21,08,25,16.30
2015,07,21,08,26,16.30
2015,07,21,08,27,16.30
2015,07,21,08,28,16.30
2015,07,21,08,29,16.30
2015,07,21,08,30,16.30
2015,07,21,08,31,16.40
2015,07,21,08,32,16.40
2015,07,21,08,33,16.40
2015,07,21,08,34,16.40
2015,07,21,08,35,16.40
2015,07,21,08,36,16.40
2015,07,21,08,37,16.40
2015,07,21,08,38,16.40
2015,07,21,08,39,16.40
2015,07,21,08,40,16.50
2015,07,21,08,41,16.50
2015,07,21,08,42,16.50
2015,07,21,08,43,16.50
2015,07,21,08,44,16.50
2015,07,21,08,45,16.50
2015,07,21,08,46,16.50
2015,07,21,08,47,16.60
2015,07,21,08,48,16.60
2015,07,21,08,49,16.60
2015,07,21,08,50,16.60
2015,07,21,08,51,16.60
2015,07,21,08,52,16.60
2015,07,21,08,53,16.60
2015,07,21,08,54,16.60
2015,07,21,08,55,16.70
2015,07,21,08,56,16.70
2015,07,21,08,57,16.70
2015,07,21,08,58,16.70
2015,07,21,08,59,16.70
2015,07,21,09,00,16.70
2015,07,21,09,01,16.70
2015,07,21,09,02,16.70
2015,07,21,09,03,16.70
2015,07,21,09,04,16.70
2015,07,21,09,05,16.70
2015,07,21,09,06,16.80
2015,07,21,09,07,16.80
2015,07,21,09,08,16.80
2015,07,21,09,09,16.80
2015,07,21,09,10,16.80
2015,07,21,09,11,16.80
2015,07,21,09,12,16.80
2015,07,21,09,13,16.80
2015,07,21,09,14,16.80
2015,07,21,09,15,16.90
2015,07,21,09,16,16.90
2015,07,21,09,17,16.90
2015,07,21,09,18,16.90
2015,07,21,09,19,16.90
2015,07,21,09,20,16.90
2015,07,21,09,21,16.90
2015,07,21,09,22,17.00
2015,07,21,09,23,17.00
2015,07,21,09,24,17.00
2015,07,21,09,25,17.00
2015,07,21,09,26,17.00
2015,07,21,09,27,17.00
2015,07,21,09,28,17.10
2015,07,21,09,29,17.10
2015,07,21,09,30,17.10
2015,07,21,09,31,17.10
2015,07,21,09,32,17.10
2015,07,21,09,33,17.10
2015,07,21,09,34,17.10
2015,07,21,09,35,17.20
2015,07,21,09,36,17.20
2015,07,21,09,37,17.20
2015,07,21,09,38,17.20
2015,07,21,09,39,17.20
2015,07,21,09,40,17.20
2015,07,21,09,41,17.20
2015,07,21,09,42,17.20
2015,07,21,09,43,17.30
2015,07,21,09,44,17.30
2015,07,21,09,45,17.30
2015,07,21,09,46,17.30
2015,07,21,09,47,17.30
2015,07,21,09,48,17.30
2015,07,21,09,49,17.40
2015,07,21,09,50,17.40
2015,07,21,09,51,17.40
2015,07,21,09,52,17.50
2015,07,21,09,53,17.50
2015,07,21,09,54,17.50
2015,07,21,09,55,17.60
2015,07,21,09,56,17.60
2015,07,21,09,57,17.60
2015,07,21,09,58,17.70
2015,07,21,09,59,17.70
2015,07,21,10,00,17.80
2015,07,21,10,01,17.80
2015,07,21,10,02,17.80
2015,07,21,10,03,17.90
2015,07,21,10,04,17.90
2015,07,21,10,05,17.90
2015,07,21,10,06,17.90
2015,07,21,10,07,18.00
2015,07,21,10,08,18.00
2015,07,21,10,09,18.10
2015,07,21,10,10,18.10
2015,07,21,10,11,18.10
2015,07,21,10,12,18.20
2015,07,21,10,13,18.20
2015,07,21,10,14,18.20
2015,07,21,10,15,18.20
2015,07,21,10,16,18.20
2015,07,21,10,17,18.30
2015,07,21,10,18,18.30
2015,07,21,10,19,18.30
2015,07,21,10,20,18.30
2015,07,21,10,21,18.40
2015,07,21,10,22,18.40
2015,07,21,10,23,18.50
2015,07,21,10,24,18.50
2015,07,21,10,25,18.60
2015,07,21,10,26,18.60
2015,07,21,10,27,18.60
2015,07,21,10,28,18.60
2015,07,21,10,29,18.70
2015,07,21,10,30,18.70
2015,07,21,10,31,18.80
2015,07,21,10,32,18.80
2015,07,21,10,33,18.80
2015,07,21,10,34,18.90
2015,07,21,10,35,18.90
2015,07,21,10,36,18.90
2015,07,21,10,37,18.90
2015,07,21,10,38,18.90
2015,07,21,10,39,19.00
2015,07,21,10,40,19.00
2015,07,21,10,41,19.00
2015,07,21,10,42,19.10
2015,07,21,10,43,19.10
2015,07,21,10,44,19.20
2015,07,21,10,45,19.20
2015,07,21,10,46,19.20
2015,07,21,10,47,19.30
2015,07,21,10,48,19.30
2015,07,21,10,49,19.40
2015,07,21,10,50,19.50
2015,07,21,10,51,19.60
2015,07,21,10,52,19.70
2015,07,21,10,53,19.90
2015,07,21,10,54,19.90
2015,07,21,10,55,20.00
2015,07,21,10,56,20.10
2015,07,21,10,57,20.20
2015,07,21,10,58,20.20
2015,07,21,10,59,20.20
2015,07,21,11,00,20.30
2015,07,21,11,01,20.30
2015,07,21,11,02,20.30
2015,07,21,11,03,20.30
2015,07,21,11,04,20.30
2015,07,21,11,05,20.30
2015,07,21,11,06,20.30
2015,07,21,11,07,20.30
2015,07,21,11,08,20.30
2015,07,21,11,09,20.30
2015,07,21,11,10,20.30
2015,07,21,11,11,20.30
2015,07,21,11,12,20.30
2015,07,21,11,13,20.30
2015,07,21,11,14,20.30
2015,07,21,11,15,20.30
2015,07,21,11,16,20.30
2015,07,21,11,17,20.30
2015,07,21,11,18,20.30
2015,07,21,11,19,20.30
2015,07,21,11,20,20.30
2015,07,21,11,21,20.30
2015,07,21,11,22,20.20
2015,07,21,11,23,20.20
2015,07,21,11,24,20.20
2015,07,21,11,25,20.20
2015,07,21,11,26,20.30
2015,07,21,11,27,20.20
2015,07,21,11,28,20.20
2015,07,21,11,29,20.20
2015,07,21,11,30,20.20
2015,07,21,11,31,20.20
2015,07,21,11,32,20.20
2015,07,21,11,33,20.20
2015,07,21,11,34,20.20
2015,07,21,11,35,20.20
2015,07,21,11,36,20.10
2015,07,21,11,37,20.10
2015,07,21,11,38,20.10
2015,07,21,11,39,20.00
2015,07,21,11,40,19.90
2015,07,21,11,41,19.90
2015,07,21,11,42,19.90
2015,07,21,11,43,19.90
2015,07,21,11,44,19.90
2015,07,21,11,45,19.90
2015,07,21,11,46,19.90
2015,07,21,11,47,19.90
2015,07,21,11,48,19.90
2015,07,21,11,49,20.00
2015,07,21,11,50,20.00
2015,07,21,11,51,20.10
2015,07,21,11,52,20.10
2015,07,21,11,53,20.10
2015,07,21,11,54,20.20
2015,07,21,11,55,20.20
2015,07,21,11,56,20.20
2015,07,21,11,57,20.20
2015,07,21,11,58,20.30
2015,07,21,11,59,20.30
2015,07,21,12,00,20.30
2015,07,21,12,01,20.30
2015,07,21,12,02,20.30
2015,07,21,12,03,20.30
2015,07,21,12,04,20.30
2015,07,21,12,05,20.30
2015,07,21,12,06,20.20
2015,07,21,12,07,20.20
2015,07,21,12,08,20.10
2015,07,21,12,09,20.10
2015,07,21,12,10,20.10
2015,07,21,12,11,20.10
2015,07,21,12,12,20.10
2015,07,21,12,13,20.20
2015,07,21,12,14,20.20
2015,07,21,12,15,20.20
2015,07,21,12,16,20.20
2015,07,21,12,17,20.20
2015,07,21,12,18,20.20
2015,07,21,12,19,20.20
2015,07,21,12,20,20.30
2015,07,21,12,21,20.30
2015,07,21,12,22,20.20
2015,07,21,12,23,20.20
2015,07,21,12,24,20.30
2015,07,21,12,25,20.30
2015,07,21,12,26,20.30
2015,07,21,12,27,20.40
2015,07,21,12,28,20.50
2015,07,21,12,29,20.60
2015,07,21,12,30,20.60
2015,07,21,12,31,20.60
2015,07,21,12,32,20.60
2015,07,21,12,33,20.70
2015,07,21,12,34,20.70
2015,07,21,12,35,20.70
2015,07,21,12,36,20.70
2015,07,21,12,37,20.70
2015,07,21,12,38,20.80
2015,07,21,12,39,20.80
2015,07,21,12,40,20.90
2015,07,21,12,41,21.00
2015,07,21,12,42,21.00
2015,07,21,12,43,21.10
2015,07,21,12,44,21.20
2015,07,21,12,45,21.30
2015,07,21,12,46,21.30
2015,07,21,12,47,21.30
2015,07,21,12,48,21.30
2015,07,21,12,49,21.40
2015,07,21,12,50,21.40
2015,07,21,12,51,21.50
2015,07,21,12,52,21.60
2015,07,21,12,53,21.60
2015,07,21,12,54,21.60
2015,07,21,12,55,21.70
2015,07,21,12,56,21.70
2015,07,21,12,57,21.80
2015,07,21,12,58,21.80
2015,07,21,12,59,21.90
2015,07,21,13,00,21.90
2015,07,21,13,01,22.00
2015,07,21,13,02,22.00
2015,07,21,13,03,22.10
2015,07,21,13,04,22.20
2015,07,21,13,05,22.20
2015,07,21,13,06,22.30
2015,07,21,13,07,22.30
2015,07,21,13,08,22.40
2015,07,21,13,09,22.50
2015,07,21,13,10,22.50
2015,07,21,13,11,22.60
2015,07,21,13,12,22.70
2015,07,21,13,13,22.70
2015,07,21,13,14,22.80
2015,07,21,13,15,22.80
2015,07,21,13,16,22.80
2015,07,21,13,17,22.80
2015,07,21,13,18,22.80
2015,07,21,13,19,22.70
2015,07,21,13,20,22.70
2015,07,21,13,21,22.70
2015,07,21,13,22,22.80
2015,07,21,13,23,22.90
2015,07,21,13,24,22.90
2015,07,21,13,25,22.90
2015,07,21,13,26,22.90
2015,07,21,13,27,22.90
2015,07,21,13,28,22.90
2015,07,21,13,29,22.90
2015,07,21,13,30,22.90
2015,07,21,13,31,23.00
2015,07,21,13,32,23.10
2015,07,21,13,33,23.10
2015,07,21,13,34,23.10
2015,07,21,13,35,23.10
2015,07,21,13,36,23.10
2015,07,21,13,37,23.10
2015,07,21,13,38,23.20
2015,07,21,13,39,23.20
2015,07,21,13,40,23.20
2015,07,21,13,41,23.30
2015,07,21,13,42,23.40
2015,07,21,13,43,23.40
2015,07,21,13,44,23.40
2015,07,21,13,45,23.50
2015,07,21,13,46,23.50
2015,07,21,13,47,23.40
2015,07,21,13,48,23.40
2015,07,21,13,49,23.40
2015,07,21,13,50,23.40
2015,07,21,13,51,23.30
2015,07,21,13,52,23.30
2015,07,21,13,53,23.30
2015,07,21,13,54,23.40
2015,07,21,13,55,23.40
2015,07,21,13,56,23.40
2015,07,21,13,57,23.40
2015,07,21,13,58,23.40
2015,07,21,13,59,23.30
2015,07,21,14,00,23.30
2015,07,21,14,01,23.30
2015,07,21,14,02,23.30
2015,07,21,14,03,23.20
2015,07,21,14,04,23.20
2015,07,21,14,05,23.20
2015,07,21,14,06,23.20
2015,07,21,14,07,23.20
2015,07,21,14,08,23.10
2015,07,21,14,09,23.10
2015,07,21,14,10,23.00
2015,07,21,14,11,23.00
2015,07,21,14,12,23.00
2015,07,21,14,13,22.90
2015,07,21,14,14,22.90
2015,07,21,14,15,22.80
2015,07,21,14,16,22.80
2015,07,21,14,17,22.80
2015,07,21,14,18,22.90
2015,07,21,14,19,22.90
2015,07,21,14,20,22.90
2015,07,21,14,21,22.90
2015,07,21,14,22,23.00
2015,07,21,14,23,23.00
2015,07,21,14,24,23.10
2015,07,21,14,25,23.20
2015,07,21,14,26,23.20
2015,07,21,14,27,23.20
2015,07,21,14,28,23.30
2015,07,21,14,29,23.30
2015,07,21,14,30,23.40
2015,07,21,14,31,23.40
2015,07,21,14,32,23.40
2015,07,21,14,33,23.40
2015,07,21,14,34,23.40
2015,07,21,14,35,23.40
2015,07,21,14,36,23.50
2015,07,21,14,37,23.60
2015,07,21,14,38,23.60
2015,07,21,14,39,23.50
2015,07,21,14,40,23.40
2015,07,21,14,41,23.30
2015,07,21,14,42,23.20
2015,07,21,14,43,23.10
2015,07,21,14,44,23.10
2015,07,21,14,45,23.20
2015,07,21,14,46,23.30
2015,07,21,14,47,23.40
2015,07,21,14,48,23.50
2015,07,21,14,49,23.60
2015,07,21,14,50,23.70
2015,07,21,14,51,23.80
2015,07,21,14,52,23.90
2015,07,21,14,53,23.90
2015,07,21,14,54,23.90
2015,07,21,14,55,24.00
2015,07,21,14,56,24.00
2015,07,21,14,57,24.00
2015,07,21,14,58,24.00
2015,07,21,14,59,24.00
2015,07,21,15,00,24.00
2015,07,21,15,01,23.90
2015,07,21,15,02,23.90
2015,07,21,15,03,23.90
2015,07,21,15,04,23.90
2015,07,21,15,05,24.00
2015,07,21,15,06,24.00
2015,07,21,15,07,24.10
2015,07,21,15,08,24.10
2015,07,21,15,09,24.20
2015,07,21,15,10,24.20
2015,07,21,15,11,24.20
2015,07,21,15,12,24.20
2015,07,21,15,13,24.20
2015,07,21,15,14,24.20
2015,07,21,15,15,24.20
2015,07,21,15,16,24.20
2015,07,21,15,17,24.20
2015,07,21,15,18,24.10
2015,07,21,15,19,24.10
2015,07,21,15,20,24.00
2015,07,21,15,21,24.00
2015,07,21,15,22,24.00
2015,07,21,15,23,23.90
2015,07,21,15,24,23.90
2015,07,21,15,25,23.90
2015,07,21,15,26,23.90
2015,07,21,15,27,23.90
2015,07,21,15,28,23.90
2015,07,21,15,29,23.90
2015,07,21,15,30,23.90
2015,07,21,15,31,23.90
2015,07,21,15,32,24.00
2015,07,21,15,33,24.00
2015,07,21,15,34,24.00
2015,07,21,15,35,24.00
2015,07,21,15,36,24.00
2015,07,21,15,37,24.00
2015,07,21,15,38,23.90
2015,07,21,15,39,23.80
2015,07,21,15,40,23.80
2015,07,21,15,41,23.80
2015,07,21,15,42,23.80
2015,07,21,15,43,23.80
2015,07,21,15,44,23.80
2015,07,21,15,45,23.80
2015,07,21,15,46,23.80
2015,07,21,15,47,23.80
2015,07,21,15,48,23.80
2015,07,21,15,49,23.80
2015,07,21,15,50,23.80
2015,07,21,15,51,23.80
2015,07,21,15,52,23.80
2015,07,21,15,53,23.80
2015,07,21,15,54,23.80
2015,07,21,15,55,23.90
2015,07,21,15,56,23.90
2015,07,21,15,57,23.90
2015,07,21,15,58,23.90
2015,07,21,15,59,23.90
2015,07,21,16,00,23.80
2015,07,21,16,01,23.80
2015,07,21,16,02,23.80
2015,07,21,16,03,23.80
2015,07,21,16,04,23.80
2015,07,21,16,05,23.80
2015,07,21,16,06,23.80
2015,07,21,16,07,23.80
2015,07,21,16,08,23.80
2015,07,21,16,09,23.80
2015,07,21,16,10,23.80
2015,07,21,16,11,23.80
2015,07,21,16,12,23.80
2015,07,21,16,13,23.80
2015,07,21,16,14,23.90
2015,07,21,16,15,23.90
2015,07,21,16,16,23.90
2015,07,21,16,17,23.80
2015,07,21,16,18,23.80
2015,07,21,16,19,23.80
2015,07,21,16,20,23.80
2015,07,21,16,21,23.80
2015,07,21,16,22,23.80
2015,07,21,16,23,23.80
2015,07,21,16,24,23.70
2015,07,21,16,25,23.70
2015,07,21,16,26,23.70
2015,07,21,16,27,23.70
2015,07,21,16,28,23.70
2015,07,21,16,29,23.70
2015,07,21,16,30,23.70
2015,07,21,16,31,23.70
2015,07,21,16,32,23.70
2015,07,21,16,33,23.60
2015,07,21,16,34,23.60
2015,07,21,16,35,23.60
2015,07,21,16,36,23.60
2015,07,21,16,37,23.70
2015,07,21,16,38,23.70
2015,07,21,16,39,23.70
2015,07,21,16,40,23.70
2015,07,21,16,41,23.70
2015,07,21,16,42,23.70
2015,07,21,16,43,23.70
2015,07,21,16,44,23.70
2015,07,21,16,45,23.70
2015,07,21,16,46,23.70
2015,07,21,16,47,23.70
2015,07,21,16,48,23.70
2015,07,21,16,49,23.70
2015,07,21,16,50,23.60
2015,07,21,16,51,23.70
2015,07,21,16,52,23.60
2015,07,21,16,53,23.60
2015,07,21,16,54,23.60
2015,07,21,16,55,23.50
2015,07,21,16,56,23.50
2015,07,21,16,57,23.50
2015,07,21,16,58,23.40
2015,07,21,16,59,23.40
2015,07,21,17,00,23.40
2015,07,21,17,01,23.40
2015,07,21,17,02,23.40
2015,07,21,17,03,23.40
2015,07,21,17,04,23.40
2015,07,21,17,05,23.40
2015,07,21,17,06,23.40
2015,07,21,17,07,23.40
2015,07,21,17,08,23.40
2015,07,21,17,09,23.50
2015,07,21,17,10,23.50
2015,07,21,17,11,23.50
2015,07,21,17,12,23.40
2015,07,21,17,13,23.40
2015,07,21,17,14,23.40
2015,07,21,17,15,23.40
2015,07,21,17,16,23.40
2015,07,21,17,17,23.40
2015,07,21,17,18,23.40
2015,07,21,17,19,23.40